Location: Grand Mesa Observatory
(38.9638°N, 108.2379°W)
Time: 00:36:07
(UTC-06:00)

OTV 5 (USA 277) - Visible Passes

Search period start: 26 September 2018 00:00
Search period end: 06 October 2018 00:00
Orbit: 387 x 394 km, 54.5° (Epoch: 08 September)

Date Brightness Start Highest point End Pass type
(mag) Time Alt. Az. Time Alt. Az. Time Alt. Az.
26 Sep ? 05:13:38 10° SE 05:14:10 10° ESE 05:14:41 10° ESE visible
27 Sep ? 05:51:20 19° SSW 05:53:21 52° SE 05:56:28 10° NE visible
28 Sep ? 04:57:42 20° ESE 04:57:42 20° ESE 04:59:39 10° ENE visible
28 Sep ? 06:30:08 10° W 06:32:56 31° NW 06:35:50 10° NNE visible
29 Sep ? 05:36:21 68° WNW 05:36:31 71° NW 05:39:42 10° NE visible
30 Sep ? 04:42:28 16° ENE 04:42:28 16° ENE 04:43:16 10° ENE visible
30 Sep ? 06:14:52 15° WNW 06:16:18 19° NNW 06:18:39 10° NNE visible
01 Oct ? 05:20:53 26° N 05:20:53 26° N 05:22:44 10° NNE visible
02 Oct ? 05:59:14 12° NW 05:59:43 12° NNW 06:01:10 10° N visible
03 Oct ? 05:05:07 12° NNE 05:05:07 12° NNE 05:05:34 10° NNE visible
